Zurück zum Katalog

STARLINK-4059

AktivKommunikationVLEO
NORAD 53250·PAYLOAD·🇺🇸 United States

Gestartet Jul 24, 2022 von Cape Canaveral Space Force Station

Loading…

Nächste Überflüge (nächste 24 Stunden)

TLE

AktuellSource: CelesTrak SupGP

Epoche: Sep 14, 2026, 21:04 UTC

1 53250C 22086J   26257.87826389  .00022198  00000+0  65591-3 0  2573
2 53250  53.1592  51.6552 0001093  78.2638 145.0989 15.34377275    14

Verfolge STARLINK-4059 in Echtzeit mit AllMySat

Download on the App Store